Regional Weather Roundup
Issued by NWS

Home | Current Version | Previous Version | Text Only | Print | Product List | Glossary Off
Versions: 1 2 3 4 5 6 7 8 9 10 11 12 13 14 15 16 17 18 19 20 21 22 23 24 25 26 27 28 29 30 31 32 33 34 35 36 37 38 39 40 41 42 43 44 45 46 47 48 49 50

000
ASUS44 KMEG 110700
RWRTN
TENNESSEE HOURLY STATE WEATHER ROUNDUP
NATIONAL WEATHER SERVICE MEMPHIS TN
100 AM CST MON DEC 11 2017

TNZ002-004-019-021-049-052-054-088>092-110800-
WEST TENNESSEE

CITY           SKY/WX    TMP DP  RH WIND       PRES   REMARKS
MEMPHIS INTL   CLEAR     42  31  64 CALM      30.18S
NWS MEMPHIS      N/A     36 N/A N/A MISG        N/A
JACKSON        CLEAR     40  29  64 SW3       30.17S
DYERSBURG      CLEAR     38  30  73 CALM      30.17F
$$

TNZ008-025-027-028-033-062-065-066-110800-
NORTH MIDDLE TENNESSEE

CITY           SKY/WX    TMP DP  RH WIND       PRES   REMARKS
NASHVILLE      CLEAR     39  25  57 W3        30.17S
CLARKSVILLE    CLEAR     39  24  55 NW3       30.16S
SMYRNA         CLEAR     29  24  82 CALM      30.18S
CROSSVILLE     CLEAR     30  20  66 CALM      30.14F
$$

TNZ061-075-076-078-094-096-097-110800-
SOUTH MIDDLE TENNESSEE

CITY           SKY/WX    TMP DP  RH WIND       PRES   REMARKS
$$

TNZ017-018-042-046-047-110800-
NORTHEAST TENNESSEE

CITY           SKY/WX    TMP DP  RH WIND       PRES   REMARKS
TRI CITIES     CLOUDY    24  21  88 N3        30.15F
$$

TNZ012-013-036-069-073-074-110800-
CENTRAL EAST TENNESSEE

CITY           SKY/WX    TMP DP  RH WIND       PRES   REMARKS
KNOXVILLE      CLOUDY    34  25  69 S5        30.17F WCI  30
OAK RIDGE      CLEAR     30  24  78 CALM      30.20F
$$

TNZ083-085-099-110800-
SOUTHEAST TENNESSEE

CITY           SKY/WX    TMP DP  RH WIND       PRES   REMARKS
CHATTANOOGA    CLEAR     32  25  75 CALM      30.20F
$$

SKY/WX REPORTED AS FAIR MEANS FEW OR NO CLOUDS BELOW
12 THOUSAND FEET.




USA.gov is the U.S. government's official web portal to all federal, state and local government web resources and services.